Tracking 19564 objects as of 18-Mar-2019
HD Live streaming from Space Station
objects crossing your sky now

SCATHA

Track SCATHA now!
SCATHA is classified as:


NORAD ID: 11256
Int'l Code: 1979-007A
Perigee: 28,024.2 km
Apogee: 42,866.7 km
Inclination: 15.9 °
Period: 1,418.3 minutes
Semi major axis: 41816 km
RCS: 3.2195 m2 (large)
Launch date: January 30, 1979
Source: United States (US)
Launch site: AIR FORCE EASTERN TEST RANGE (AFETR)
aabbcc
Your satellite tracking list
Your tracking list is empty




NASA's NSSDC Master Catalog

Two Line Element Set (TLE):
1 11256U 79007A   19076.85486806 +.00000025 +00000-0 +00000-0 0  9993
2 11256 015.8545 317.6651 1774730 046.6304 134.1582 01.01527165115566
Source of the keplerian elements: AFSPC